Location: City of Moscow
(46.7306°N, 116.9989°W)
Time: 17:28:04
(UTC+00:00)

SL-16 R/B - Visible Passes

Search period start: 07 March 2026 00:00
Search period end: 17 March 2026 00:00
Orbit: 841 x 845 km, 71.0° (Epoch: 7 March)

Date Brightness Start Highest point End Pass type
(mag) Time Alt. Az. Time Alt. Az. Time Alt. Az.
7 Mar 3.9 10:38:07 27° N 10:38:07 27° N 10:40:43 10° NNE visible
7 Mar 4.2 12:19:57 13° NW 12:20:37 13° NW 12:23:13 10° N visible
8 Mar 4.1 10:23:41 24° N 10:23:41 24° N 10:26:00 10° NNE visible
8 Mar 4.2 12:05:30 13° NW 12:05:50 13° NW 12:08:35 10° N visible
9 Mar 4.2 10:09:13 22° NNE 10:09:13 22° NNE 10:11:17 10° NNE visible
9 Mar 4.2 11:51:03 14° NW 11:51:03 14° NW 11:53:56 10° N visible
10 Mar 4.4 09:54:45 21° NNE 09:54:45 21° NNE 09:56:34 10° NNE visible
10 Mar 4.2 11:36:34 14° NNW 11:36:34 14° NNW 11:39:17 10° N visible
11 Mar 4.5 09:40:15 19° NNE 09:40:15 19° NNE 09:41:50 10° NNE visible
11 Mar 4.3 11:22:04 15° NNW 11:22:04 15° NNW 11:24:38 10° N visible
12 Mar 4.6 09:25:43 18° NNE 09:25:43 18° NNE 09:27:08 10° NNE visible
12 Mar 4.3 11:07:32 15° NNW 11:07:32 15° NNW 11:09:58 10° N visible
13 Mar 4.7 09:11:11 17° NNE 09:11:11 17° NNE 09:12:24 10° NNE visible
13 Mar 4.4 10:53:00 15° NNW 10:53:00 15° NNW 10:55:18 10° N visible
14 Mar 4.7 08:56:37 16° NNE 08:56:37 16° NNE 08:57:41 10° NNE visible
14 Mar 4.4 10:38:26 15° NNW 10:38:26 15° NNW 10:40:38 10° N visible
15 Mar 4.8 08:42:03 15° NNE 08:42:03 15° NNE 08:42:57 10° NNE visible
15 Mar 4.4 10:23:51 15° NNW 10:23:51 15° NNW 10:25:58 10° N visible
16 Mar 4.8 08:27:27 14° NNE 08:27:27 14° NNE 08:28:14 10° NNE visible
16 Mar 4.5 10:09:15 15° NNW 10:09:15 15° NNW 10:11:17 10° N visible
